Powrót do katalogu

STARLINK-34499

AktywnyŁącznośćVLEO
NORAD 64709·PAYLOAD·🇺🇸 United States

Wystrzelony Jun 28, 2025 z Vandenberg Space Force Base

Loading…

Następne Przeloty (najbliższe 24 godziny)

TLE

ŚwieżeSource: CelesTrak SupGP

Epoka: Sep 14, 2026, 22:42 UTC

1 64709C 25142P   26257.94631944 -.00031424  00000+0 -10931-2 0  2570
2 64709  70.0013 195.7417 0003234 269.2951 227.9954 15.29595062    12

Śledź STARLINK-34499 w czasie rzeczywistym z AllMySat

Download on the App Store